Flag for U.S.A. Weather past 2 weeks in Lakewood, Colorado, U.S.A.

Now
40 °F

Light rain. Fog.


Feels Like: 35 °F
Forecast: 38 / 65 °F
Wind: 7 mph from East

Location: Centennial Airport


UV Index: 5 (Moderate)

Visibility: 3 mi


Pressure: 29.77 "Hg

Humidity: 89%

Dew point: 37 °F

Location of LakewoodLocation

Historic Weather in Lakewood

°F

Lakewood temperature yesterday

Maximum temperature yesterday: 75 °F (at 12:53 PM)
Minimum temperature yesterday: 47 °F (at 3:53 AM)
Average temperature yesterday: 62 °F

Past Weeks' High & Low Weather Summary

 TemperatureHumidityPressure
High76 °F (Apr 11, 3:53 PM)92% (Apr 13, 5:53 AM)30.46 "Hg (Apr 13, 5:53 AM)
Low18 °F (Apr 14, 4:53 AM)7% (Apr 11, 4:53 PM)29.41 "Hg (Apr 23, 3:53 PM)
Average51 °F43%29.90 "Hg
* Reported Apr 8 7:53 PM — Apr 23 7:53 PM, Lakewood, Weather by CustomWeather, © 2014

Note: Actual official high and low records may vary slightly from our data, if they occured in-between our weather recording intervals... More about our weather records

Advertising

Historic Weather Conditions — Data for Previous 24 hours

 ConditionsComfort  
Time TempWeatherWind HumidityBarometerVisibility
7:53 PM
Apr 23
41 °FLight rain. Fog.15 mph89%29.75 "Hg3 mi
6:53 PM49 °FThunderstorms. Mostly cloudy.24 mph57%29.67 "Hg10 mi
5:53 PM52 °FCloudy.25 mph50%29.54 "Hg10 mi
4:53 PM63 °FCloudy.14 mph31%29.45 "Hg10 mi
3:53 PM69 °FCloudy.10 mph14%29.41 "Hg10 mi
2:53 PM69 °FBroken clouds.15 mph14%29.42 "Hg10 mi
1:53 PM69 °FBroken clouds.10 mph13%29.45 "Hg10 mi
12:53 PM70 °FPartly sunny.12 mph16%29.46 "Hg10 mi
11:53 AM69 °FScattered clouds.17 mph15%29.46 "Hg10 mi
10:53 AM65 °FScattered clouds.6 mph21%29.49 "Hg10 mi
9:53 AM65 °FPassing clouds.10 mph20%29.48 "Hg10 mi
8:53 AM63 °FPassing clouds.12 mph26%29.49 "Hg10 mi
7:53 AM52 °FScattered clouds.9 mph43%29.51 "Hg10 mi
6:53 AM51 °FPassing clouds.8 mph39%29.48 "Hg10 mi
5:53 AM55 °FPassing clouds.10 mph34%29.45 "Hg10 mi
4:53 AM55 °FPassing clouds.9 mph34%29.44 "Hg10 mi
3:53 AM56 °FPassing clouds.12 mph37%29.43 "Hg10 mi
2:53 AM58 °FPartly cloudy.15 mph36%29.46 "Hg10 mi
1:53 AM54 °FClear.9 mph43%29.49 "Hg10 mi
12:53 AM54 °FPassing clouds.8 mph43%29.49 "Hg10 mi
11:53 PM
Apr 22
58 °FPassing clouds.10 mph38%29.51 "Hg10 mi
10:53 PM57 °FPartly cloudy.8 mph42%29.54 "Hg10 mi
9:53 PM63 °FPartly cloudy.12 mph30%29.56 "Hg10 mi
Weather by CustomWeather, © 2014

See weather overview